VLG701K LEBL-LEVX

Flight info

Callsign VLG701K
Flight time 1h 25m
Altitude 32000
Route LOBAR N725 SUSOS DCT LOMDA
Aircraft A320/M-SDFGHILORVWXY/LB1

Departure

Time 2026-04-14 09:04
Airport Josep Tarradellas Barcelona-El Prat Airport (LEBL)

Arrival

Time 2026-04-14 10:29
Airport Vigo Airport (LEVX)
Time Latitude Longitude Altitude Speed Heading
2026-04-14 08:43 41.29000 2.07951 22 ft 0 kts 335°
2026-04-14 08:55 41.28999 2.07951 22 ft 1 kts 337°
2026-04-14 08:55 41.28986 2.07960 22 ft 2 kts 335°
2026-04-14 08:55 41.28972 2.07968 22 ft 2 kts 335°
2026-04-14 08:55 41.28959 2.07977 22 ft 2 kts 338°
2026-04-14 08:56 41.28944 2.07980 22 ft 2 kts
2026-04-14 08:56 41.28930 2.07976 22 ft 2 kts 25°
2026-04-14 08:56 41.28917 2.07965 22 ft 2 kts 45°
2026-04-14 08:56 41.28909 2.07951 22 ft 0 kts 63°
2026-04-14 08:57 41.28906 2.07943 22 ft 0 kts 66°
2026-04-14 08:57 41.28906 2.07942 22 ft 0 kts 66°
2026-04-14 08:58 41.28907 2.07944 22 ft 1 kts 66°
2026-04-14 08:58 41.28891 2.08004 22 ft 10 kts 147°
2026-04-14 08:59 41.28823 2.08043 22 ft 11 kts 156°
2026-04-14 08:59 41.28749 2.08097 22 ft 12 kts 126°
2026-04-14 08:59 41.28742 2.08207 22 ft 12 kts 130°
2026-04-14 08:59 41.28717 2.08310 22 ft 13 kts 66°
2026-04-14 09:00 41.28758 2.08429 22 ft 14 kts 65°
2026-04-14 09:00 41.28804 2.08557 22 ft 15 kts 66°
2026-04-14 09:00 41.28849 2.08692 22 ft 16 kts 65°
2026-04-14 09:00 41.28897 2.08832 22 ft 17 kts 65°
2026-04-14 09:01 41.28947 2.08979 22 ft 17 kts 65°
2026-04-14 09:01 41.28999 2.09131 22 ft 18 kts 65°
2026-04-14 09:01 41.29051 2.09287 22 ft 18 kts 66°
2026-04-14 09:01 41.29106 2.09443 22 ft 18 kts 65°
2026-04-14 09:02 41.29160 2.09604 22 ft 19 kts 65°
2026-04-14 09:02 41.29219 2.09767 22 ft 19 kts 62°
2026-04-14 09:02 41.29276 2.09925 22 ft 19 kts 53°
2026-04-14 09:02 41.29335 2.10077 22 ft 18 kts 65°
2026-04-14 09:03 41.29358 2.10240 22 ft 18 kts 122°
2026-04-14 09:03 41.29263 2.10311 22 ft 11 kts 157°
2026-04-14 09:03 41.29201 2.10270 22 ft 12 kts 247°
2026-04-14 09:03 41.29115 2.10011 22 ft 61 kts 245°
2026-04-14 09:04 41.28846 2.09247 23 ft 120 kts 243°
2026-04-14 09:04 41.28414 2.08038 94 ft 162 kts 246°
2026-04-14 09:04 41.27881 2.06731 646 ft 163 kts 236°
2026-04-14 09:04 41.26947 2.05896 1158 ft 170 kts 197°
2026-04-14 09:05 41.25747 2.05552 1492 ft 184 kts 188°
2026-04-14 09:05 41.24430 2.05272 1819 ft 201 kts 188°
2026-04-14 09:05 41.23007 2.04948 2117 ft 220 kts 189°
2026-04-14 09:05 41.21410 2.04549 2518 ft 238 kts 190°
2026-04-14 09:06 41.19799 2.04107 3232 ft 241 kts 195°
2026-04-14 09:06 41.18362 2.03046 3936 ft 244 kts 230°
2026-04-14 09:06 41.17646 2.01009 4518 ft 251 kts 265°
2026-04-14 09:06 41.17910 1.98736 5007 ft 261 kts 295°
2026-04-14 09:07 41.18716 1.96610 5485 ft 267 kts 298°
2026-04-14 09:07 41.19545 1.94400 5963 ft 270 kts 297°
2026-04-14 09:07 41.20367 1.92141 6660 ft 276 kts 297°
2026-04-14 09:07 41.21179 1.89857 7552 ft 276 kts 297°
2026-04-14 09:08 41.21979 1.87585 8379 ft 277 kts 297°
2026-04-14 09:08 41.22796 1.85256 9170 ft 279 kts 298°
2026-04-14 09:08 41.23606 1.82933 9915 ft 281 kts 298°
2026-04-14 09:08 41.24423 1.80594 10557 ft 286 kts 299°
2026-04-14 09:09 41.25274 1.78165 10887 ft 302 kts 299°
2026-04-14 09:09 41.26175 1.75590 11262 ft 315 kts 299°
2026-04-14 09:09 41.27092 1.72950 11854 ft 319 kts 299°
2026-04-14 09:09 41.28024 1.70251 12508 ft 322 kts 300°
2026-04-14 09:10 41.28955 1.67557 13112 ft 325 kts 300°
2026-04-14 09:10 41.29898 1.64833 13702 ft 328 kts 300°
2026-04-14 09:10 41.30851 1.62077 14281 ft 331 kts 300°
2026-04-14 09:10 41.31807 1.59305 14883 ft 333 kts 301°
2026-04-14 09:11 41.32766 1.56525 15488 ft 335 kts 301°
2026-04-14 09:11 41.33745 1.53688 16069 ft 337 kts 301°
2026-04-14 09:11 41.34719 1.50860 16613 ft 339 kts 301°
2026-04-14 09:11 41.35700 1.48005 17142 ft 342 kts 301°
2026-04-14 09:12 41.36695 1.45114 17687 ft 344 kts 301°
2026-04-14 09:12 41.37685 1.42233 18185 ft 347 kts 301°
2026-04-14 09:12 41.38688 1.39311 18699 ft 349 kts 301°
2026-04-14 09:12 41.39688 1.36395 19220 ft 351 kts 301°
2026-04-14 09:13 41.40704 1.33428 19710 ft 354 kts 300°
2026-04-14 09:13 41.41709 1.30483 20193 ft 356 kts 300°
2026-04-14 09:13 41.42732 1.27484 20668 ft 358 kts 300°
2026-04-14 09:13 41.43768 1.24449 21129 ft 360 kts 300°
2026-04-14 09:14 41.44808 1.21403 21590 ft 362 kts 300°
2026-04-14 09:14 41.45836 1.18384 21999 ft 365 kts 300°
2026-04-14 09:14 41.46892 1.15274 22482 ft 366 kts 300°
2026-04-14 09:14 41.47941 1.12180 22904 ft 368 kts 300°
2026-04-14 09:15 41.48985 1.09101 23332 ft 370 kts 300°
2026-04-14 09:15 41.50051 1.05959 23733 ft 372 kts 300°
2026-04-14 09:15 41.51108 1.02834 24090 ft 375 kts 300°
2026-04-14 09:15 41.52190 0.99620 24466 ft 378 kts 300°
2026-04-14 09:16 41.53262 0.96449 24846 ft 380 kts 300°
2026-04-14 09:16 41.54341 0.93248 25222 ft 381 kts 300°
2026-04-14 09:16 41.55426 0.90023 25644 ft 381 kts 301°
2026-04-14 09:16 41.56506 0.86817 26011 ft 383 kts 301°
2026-04-14 09:17 41.57591 0.83585 26345 ft 385 kts 301°
2026-04-14 09:17 41.58695 0.80298 26667 ft 388 kts 301°
2026-04-14 09:17 41.59791 0.77035 27045 ft 388 kts 301°
2026-04-14 09:17 41.60884 0.73760 27424 ft 389 kts 301°
2026-04-14 09:18 41.61997 0.70437 27714 ft 392 kts 302°
2026-04-14 09:18 41.63100 0.67144 28014 ft 394 kts 301°
2026-04-14 09:18 41.64212 0.63807 28371 ft 394 kts 302°
2026-04-14 09:18 41.65312 0.60496 28677 ft 396 kts 302°
2026-04-14 09:19 41.66433 0.57131 29004 ft 396 kts 302°
2026-04-14 09:19 41.67547 0.53784 29297 ft 398 kts 303°
2026-04-14 09:19 41.68657 0.50441 29593 ft 399 kts 302°
2026-04-14 09:19 41.69785 0.47043 29872 ft 401 kts 302°
2026-04-14 09:20 41.70915 0.43620 30176 ft 401 kts 303°
2026-04-14 09:20 41.72033 0.40238 30453 ft 402 kts 303°
2026-04-14 09:20 41.73163 0.36816 30653 ft 404 kts 303°
2026-04-14 09:20 41.74279 0.33355 30927 ft 407 kts 301°
2026-04-14 09:21 41.75233 0.29965 31186 ft 411 kts 298°
2026-04-14 09:21 41.76120 0.26314 31437 ft 413 kts 297°
2026-04-14 09:21 41.76987 0.22639 31669 ft 415 kts 297°
2026-04-14 09:21 41.77849 0.18967 31950 ft 414 kts 297°
2026-04-14 09:22 41.78702 0.15325 32338 ft 411 kts 298°
2026-04-14 09:22 41.79549 0.11711 32674 ft 409 kts 298°
2026-04-14 09:22 41.80397 0.08088 33080 ft 405 kts 298°
2026-04-14 09:22 41.81225 0.04543 33454 ft 402 kts 298°
2026-04-14 09:23 41.82057 0.00988 33693 ft 401 kts 298°
2026-04-14 09:23 41.82895 -0.02588 33929 ft 402 kts 298°
2026-04-14 09:23 41.83722 -0.06121 34110 ft 403 kts 298°
2026-04-14 09:23 41.84565 -0.09737 34307 ft 403 kts 298°
2026-04-14 09:24 41.85393 -0.13297 34498 ft 403 kts 298°
2026-04-14 09:24 41.86224 -0.16884 34687 ft 403 kts 298°
2026-04-14 09:24 41.87050 -0.20446 34815 ft 405 kts 298°
2026-04-14 09:24 41.87884 -0.24047 34992 ft 405 kts 298°
2026-04-14 09:25 41.89537 -0.31236 35093 ft 407 kts 298°
2026-04-14 09:25 41.91192 -0.38440 35091 ft 406 kts 298°
2026-04-14 09:26 41.92861 -0.45697 35094 ft 406 kts 298°
2026-04-14 09:26 41.94519 -0.52942 35094 ft 408 kts 298°
2026-04-14 09:27 41.96176 -0.60198 35098 ft 408 kts 298°
2026-04-14 09:27 41.97800 -0.67346 35094 ft 405 kts 297°
2026-04-14 09:28 41.99453 -0.74638 35097 ft 406 kts 297°
2026-04-14 09:28 42.01079 -0.81855 35100 ft 407 kts 297°
2026-04-14 09:29 42.02713 -0.89110 35095 ft 405 kts 297°
2026-04-14 09:29 42.04330 -0.96332 35094 ft 406 kts 297°
2026-04-14 09:30 42.05951 -1.03606 35092 ft 406 kts 297°
2026-04-14 09:30 42.07561 -1.10855 35100 ft 406 kts 297°
2026-04-14 09:31 42.09163 -1.18100 35098 ft 406 kts 297°
2026-04-14 09:31 42.10766 -1.25348 35109 ft 407 kts 297°
2026-04-14 09:32 42.12359 -1.32564 35110 ft 405 kts 296°
2026-04-14 09:33 42.14752 -1.43467 35119 ft 407 kts 297°
2026-04-14 09:33 42.16346 -1.50762 35118 ft 406 kts 297°
2026-04-14 09:34 42.17925 -1.58008 35130 ft 407 kts 297°
2026-04-14 09:34 42.19506 -1.65291 35128 ft 406 kts 296°
2026-04-14 09:35 42.21084 -1.72586 35296 ft 407 kts 296°
2026-04-14 09:35 42.21873 -1.76247 35191 ft 407 kts 296°
2026-04-14 09:35 42.22666 -1.79936 35156 ft 407 kts 296°
2026-04-14 09:36 42.24230 -1.87206 35148 ft 406 kts 296°
2026-04-14 09:36 42.25787 -1.94492 35140 ft 407 kts 296°
2026-04-14 09:37 42.27357 -2.01850 35147 ft 408 kts 296°
2026-04-14 09:37 42.28918 -2.09183 35147 ft 407 kts 296°
2026-04-14 09:38 42.30470 -2.16508 35145 ft 407 kts 296°
2026-04-14 09:38 42.32013 -2.23818 35140 ft 407 kts 296°
2026-04-14 09:39 42.33550 -2.31123 35142 ft 408 kts 295°
2026-04-14 09:39 42.35090 -2.38472 35156 ft 409 kts 295°
2026-04-14 09:40 42.36631 -2.45859 35163 ft 409 kts 296°
2026-04-14 09:40 42.38164 -2.53220 35166 ft 408 kts 295°
2026-04-14 09:41 42.39676 -2.60528 35167 ft 408 kts 295°
2026-04-14 09:41 42.41174 -2.67785 35171 ft 409 kts 295°
2026-04-14 09:42 42.42689 -2.75135 35177 ft 410 kts 295°
2026-04-14 09:42 42.44208 -2.82544 35185 ft 410 kts 294°
2026-04-14 09:43 42.45526 -2.90074 35181 ft 416 kts 289°
2026-04-14 09:43 42.46411 -2.97788 35181 ft 416 kts 288°
2026-04-14 09:44 42.47252 -3.05506 35183 ft 416 kts 287°
2026-04-14 09:44 42.48090 -3.13247 35182 ft 417 kts 287°
2026-04-14 09:45 42.48927 -3.21015 35184 ft 416 kts 287°
2026-04-14 09:45 42.49753 -3.28731 35183 ft 416 kts 287°
2026-04-14 09:46 42.50575 -3.36414 35181 ft 416 kts 287°
2026-04-14 09:46 42.51397 -3.44182 35183 ft 416 kts 287°
2026-04-14 09:47 42.52206 -3.51877 35185 ft 414 kts 287°
2026-04-14 09:47 42.53012 -3.59597 35185 ft 415 kts 287°
2026-04-14 09:48 42.53805 -3.67255 35183 ft 415 kts 286°
2026-04-14 09:48 42.54606 -3.75019 35182 ft 414 kts 286°
2026-04-14 09:49 42.55396 -3.82736 35180 ft 414 kts 286°
2026-04-14 09:49 42.56174 -3.90403 35175 ft 414 kts 286°
2026-04-14 09:50 42.56948 -3.98097 35159 ft 413 kts 286°
2026-04-14 09:50 42.57721 -4.05807 35157 ft 413 kts 286°
2026-04-14 09:51 42.58488 -4.13497 35165 ft 413 kts 286°
2026-04-14 09:51 42.59249 -4.21190 35162 ft 412 kts 286°
2026-04-14 09:52 42.59999 -4.28843 35167 ft 412 kts 286°
2026-04-14 09:52 42.60750 -4.36551 35165 ft 412 kts 286°
2026-04-14 09:53 42.61489 -4.44215 35164 ft 412 kts 286°
2026-04-14 09:53 42.62231 -4.51910 35165 ft 411 kts 285°
2026-04-14 09:54 42.62959 -4.59577 35168 ft 410 kts 285°
2026-04-14 09:54 42.63680 -4.67213 35168 ft 411 kts 285°
2026-04-14 09:55 42.64404 -4.74914 35170 ft 411 kts 284°
2026-04-14 09:55 42.65115 -4.82563 35173 ft 411 kts 284°
2026-04-14 09:56 42.65825 -4.90243 35174 ft 410 kts 284°
2026-04-14 09:56 42.66524 -4.97882 35178 ft 410 kts 284°
2026-04-14 09:57 42.67222 -5.05565 35181 ft 411 kts 284°
2026-04-14 09:57 42.67913 -5.13249 35181 ft 411 kts 284°
2026-04-14 09:58 42.68599 -5.20935 35183 ft 410 kts 284°
2026-04-14 09:58 42.69275 -5.28586 35187 ft 410 kts 284°
2026-04-14 09:59 42.69946 -5.36267 35188 ft 410 kts 284°
2026-04-14 09:59 42.70614 -5.43923 35191 ft 410 kts 284°
2026-04-14 10:00 42.71282 -5.51594 35195 ft 409 kts 284°
2026-04-14 10:00 42.71945 -5.59262 35196 ft 409 kts 283°
2026-04-14 10:01 42.72599 -5.66890 35205 ft 410 kts 283°
2026-04-14 10:01 42.73251 -5.74576 35202 ft 410 kts 283°
2026-04-14 10:02 42.73902 -5.82278 35202 ft 411 kts 283°
2026-04-14 10:02 42.74544 -5.89979 35205 ft 411 kts 283°
2026-04-14 10:03 42.75180 -5.97664 35200 ft 410 kts 282°
2026-04-14 10:03 42.75810 -6.05322 35195 ft 410 kts 282°
2026-04-14 10:04 42.76437 -6.13023 35192 ft 411 kts 282°
2026-04-14 10:04 42.77056 -6.20703 35194 ft 410 kts 282°
2026-04-14 10:05 42.77670 -6.28362 35191 ft 409 kts 282°
2026-04-14 10:05 42.78281 -6.36053 35190 ft 409 kts 282°
2026-04-14 10:06 42.78877 -6.43651 34856 ft 402 kts 282°
2026-04-14 10:06 42.79172 -6.47396 34112 ft 403 kts 281°
2026-04-14 10:06 42.79469 -6.51175 33376 ft 404 kts 281°
2026-04-14 10:06 42.79766 -6.54994 32591 ft 407 kts 281°
2026-04-14 10:07 42.80062 -6.58804 31797 ft 409 kts 281°
2026-04-14 10:07 42.80356 -6.62612 31077 ft 410 kts 281°
2026-04-14 10:07 42.80647 -6.66444 30541 ft 406 kts 280°
2026-04-14 10:07 42.80933 -6.70217 29985 ft 404 kts 279°
2026-04-14 10:08 42.81218 -6.73987 29410 ft 402 kts 279°
2026-04-14 10:08 42.81501 -6.77733 28865 ft 399 kts 279°
2026-04-14 10:08 42.81781 -6.81488 28329 ft 396 kts 279°
2026-04-14 10:08 42.82057 -6.85180 27808 ft 393 kts 279°
2026-04-14 10:09 42.82333 -6.88874 27288 ft 389 kts 279°
2026-04-14 10:09 42.82602 -6.92506 26782 ft 386 kts 279°
2026-04-14 10:09 42.82868 -6.96103 26269 ft 383 kts 279°
2026-04-14 10:09 42.83130 -6.99671 25762 ft 380 kts 279°
2026-04-14 10:10 42.83387 -7.03197 25261 ft 376 kts 279°
2026-04-14 10:10 42.83646 -7.06743 24744 ft 374 kts 279°
2026-04-14 10:10 42.83901 -7.10245 24234 ft 371 kts 279°
2026-04-14 10:10 42.84152 -7.13711 23746 ft 368 kts 279°
2026-04-14 10:11 42.84397 -7.17119 23274 ft 365 kts 279°
2026-04-14 10:11 42.84644 -7.20565 22774 ft 363 kts 278°
2026-04-14 10:11 42.84885 -7.23958 22296 ft 361 kts 278°
2026-04-14 10:11 42.85043 -7.27231 21833 ft 361 kts 272°
2026-04-14 10:12 42.84807 -7.30615 21340 ft 363 kts 263°
2026-04-14 10:12 42.84140 -7.33932 20880 ft 364 kts 255°
2026-04-14 10:12 42.83276 -7.37168 20436 ft 362 kts 254°
2026-04-14 10:12 42.82396 -7.40353 19994 ft 360 kts 253°
2026-04-14 10:13 42.81523 -7.43518 19542 ft 358 kts 253°
2026-04-14 10:13 42.80654 -7.46671 19097 ft 356 kts 254°
2026-04-14 10:13 42.79800 -7.49784 18645 ft 354 kts 253°
2026-04-14 10:13 42.78954 -7.52870 18207 ft 352 kts 254°
2026-04-14 10:14 42.78114 -7.55931 17782 ft 350 kts 253°
2026-04-14 10:14 42.77260 -7.59051 17361 ft 348 kts 253°
2026-04-14 10:14 42.76426 -7.62093 16940 ft 346 kts 253°
2026-04-14 10:14 42.75588 -7.65149 16513 ft 344 kts 252°
2026-04-14 10:15 42.74759 -7.68155 16096 ft 342 kts 252°
2026-04-14 10:15 42.73928 -7.71178 15680 ft 340 kts 252°
2026-04-14 10:15 42.73106 -7.74164 15278 ft 338 kts 252°
2026-04-14 10:15 42.72293 -7.77111 14866 ft 335 kts 252°
2026-04-14 10:16 42.71473 -7.80082 14468 ft 333 kts 252°
2026-04-14 10:16 42.70668 -7.82995 14089 ft 331 kts 253°
2026-04-14 10:16 42.69865 -7.85901 13672 ft 329 kts 253°
2026-04-14 10:16 42.69062 -7.88797 13291 ft 327 kts 252°
2026-04-14 10:17 42.68266 -7.91666 12876 ft 325 kts 252°
2026-04-14 10:17 42.67466 -7.94545 12478 ft 324 kts 252°
2026-04-14 10:17 42.66679 -7.97381 12094 ft 321 kts 252°
2026-04-14 10:17 42.65898 -8.00185 11718 ft 319 kts 252°
2026-04-14 10:18 42.64335 -8.05792 10954 ft 315 kts 252°
2026-04-14 10:18 42.63565 -8.08551 10574 ft 313 kts 252°
2026-04-14 10:18 42.62800 -8.11282 10348 ft 306 kts 252°
2026-04-14 10:19 42.62062 -8.13917 10165 ft 298 kts 251°
2026-04-14 10:19 42.61327 -8.16541 9965 ft 290 kts 251°
2026-04-14 10:19 42.60619 -8.19060 9835 ft 281 kts 251°
2026-04-14 10:19 42.59938 -8.21484 9643 ft 277 kts 251°
2026-04-14 10:20 42.59246 -8.23954 9281 ft 277 kts 251°
2026-04-14 10:20 42.58569 -8.26364 8970 ft 276 kts 251°
2026-04-14 10:20 42.57883 -8.28800 8656 ft 274 kts 251°
2026-04-14 10:20 42.57214 -8.31178 8355 ft 272 kts 251°
2026-04-14 10:21 42.56536 -8.33585 8043 ft 270 kts 251°
2026-04-14 10:21 42.55874 -8.35926 7745 ft 268 kts 251°
2026-04-14 10:21 42.55207 -8.38288 7440 ft 266 kts 251°
2026-04-14 10:21 42.54561 -8.40575 7282 ft 258 kts 250°
2026-04-14 10:22 42.53925 -8.42823 7131 ft 251 kts 250°
2026-04-14 10:22 42.53312 -8.44982 6980 ft 243 kts 250°
2026-04-14 10:22 42.52714 -8.47086 6832 ft 236 kts 250°
2026-04-14 10:22 42.52126 -8.49155 6653 ft 232 kts 250°
2026-04-14 10:23 42.51553 -8.51176 6411 ft 230 kts 250°
2026-04-14 10:23 42.50973 -8.53197 6155 ft 229 kts 246°
2026-04-14 10:23 42.49981 -8.54847 5832 ft 227 kts 216°
2026-04-14 10:23 42.48588 -8.55715 5558 ft 223 kts 199°
2026-04-14 10:24 42.47102 -8.56209 5281 ft 217 kts 194°
2026-04-14 10:24 42.45650 -8.56593 5010 ft 211 kts 194°
2026-04-14 10:24 42.44227 -8.56958 4764 ft 203 kts 194°
2026-04-14 10:24 42.42909 -8.57302 4591 ft 192 kts 194°
2026-04-14 10:25 42.41615 -8.57651 4317 ft 188 kts 194°
2026-04-14 10:25 42.40339 -8.57998 4042 ft 186 kts 194°
2026-04-14 10:25 42.39074 -8.58344 3771 ft 184 kts 195°
2026-04-14 10:25 42.37826 -8.58685 3512 ft 182 kts 194°
2026-04-14 10:26 42.36599 -8.59021 3259 ft 180 kts 194°
2026-04-14 10:26 42.35382 -8.59354 3015 ft 178 kts 194°
2026-04-14 10:26 42.34168 -8.59684 2775 ft 175 kts 194°
2026-04-14 10:26 42.32987 -8.60006 2552 ft 170 kts 193°
2026-04-14 10:27 42.31874 -8.60309 2352 ft 157 kts 193°
2026-04-14 10:27 42.30863 -8.60583 2143 ft 144 kts 195°
2026-04-14 10:27 42.29908 -8.60845 1948 ft 135 kts 192°
2026-04-14 10:27 42.28989 -8.61095 1773 ft 134 kts 193°
2026-04-14 10:28 42.28080 -8.61341 1600 ft 134 kts 195°
2026-04-14 10:28 42.27169 -8.61590 1424 ft 134 kts 194°
2026-04-14 10:28 42.26264 -8.61836 1241 ft 133 kts 194°
2026-04-14 10:28 42.25372 -8.62082 1071 ft 133 kts 192°
2026-04-14 10:29 42.24465 -8.62326 889 ft 131 kts 191°
2026-04-14 10:29 42.23595 -8.62561 831 ft 112 kts 192°
2026-04-14 10:29 42.23032 -8.62723 840 ft 47 kts 197°
2026-04-14 10:29 42.22872 -8.62809 842 ft 16 kts 210°
2026-04-14 10:30 42.22804 -8.62870 842 ft 10 kts 218°
2026-04-14 10:30 42.22745 -8.62936 840 ft 11 kts 218°
2026-04-14 10:30 42.22681 -8.63006 842 ft 11 kts 219°
2026-04-14 10:30 42.22607 -8.63053 840 ft 12 kts 192°
2026-04-14 10:31 42.22520 -8.63075 841 ft 11 kts 194°
2026-04-14 10:31 42.22501 -8.63095 842 ft 2 kts 259°
2026-04-14 10:31 42.22503 -8.63132 842 ft 6 kts 281°
2026-04-14 10:31 42.22511 -8.63186 841 ft 3 kts 281°
2026-04-14 10:32 42.22511 -8.63189 841 ft 0 kts 282°